Weather History for KDFW - July, 2013

Change the Weather History Date:

Thursday, July 18, 2013

  Actual Average Record
Temperature  
Mean Temperature 83 °F 86 °F  
Max Temperature 93 °F 96 °F 110 °F (1980)
Min Temperature 73 °F 75 °F 65 °F (2014)
Degree Days  
Heating Degree Days 0 0  
Month to date heating degree days 0 0  
Since 1 June heating degree days 0 0  
Since 1 July heating degree days 0 0  
Cooling Degree Days 18 21  
Month to date cooling degree days 333 357  
Year to date cooling degree days 1260 1270  
Since 1 June cooling degree days 871 848  
Growing Degree Days 33 (Base 50)    
Moisture  
Dew Point 69 °F    
Average Humidity 66    
Maximum Humidity 87    
Minimum Humidity 44    
Precipitation  
Precipitation 0.00 in 0.06 in 2.90 in (1919)
Month to date precipitation 1.71 1.45  
Year to date precipitation 17.01 21.49  
Sea Level Pressure  
Sea Level Pressure 30.09 in    
Wind  
Wind Speed 3 mph (East)    
Max Wind Speed 12 mph    
Max Gust Speed 15 mph    
Visibility 10 miles    
Events      
T = Trace of Precipitation, MM = Missing Value Source: NWS Daily Summary

Daily Weather History Graph

Daily Weather History Graph

Search for Another Location

Airport or City:

Trip Planner

Search our weather history database for the weather conditions in past years. The results will help you decide how hot, cold, wet, or windy it might be!

Date:

Astronomy

Jul. 18, 2013 Rise Set
Actual Time 6:32 AM CDT 8:35 PM CDT
Civil Twilight 6:04 AM CDT 9:03 PM CDT
Nautical Twilight 5:30 AM CDT 9:37 PM CDT
Astronomical Twilight 4:54 AM CDT 10:13 PM CDT
Moon 4:35 PM CDT (7/18) 2:20 AM CDT (7/18)
Length of Visible Light 14h 58m
Length of Day
14h 03m
Waxing Gibbous, 77% of the Moon is Illuminated
Jul 18
Waxing Gibbous
Jul 22
Full
Jul 29
Last Quarter
Aug 6
New
Aug 14
First Quarter

Hourly Weather History & Observations

Time (CDT) Temp. Heat Index Dew Point Humidity Pressure Visibility Wind Dir Wind Speed Gust Speed Precip Events Conditions
12:53 AM 75.9 °F - 68.0 °F 76% 30.16 in 10.0 mi East 3.5 mph - N/A   Mostly Cloudy
1:53 AM 77.0 °F - 66.9 °F 71% 30.15 in 10.0 mi Calm Calm - N/A   Mostly Cloudy
2:53 AM 75.9 °F - 66.9 °F 74% 30.14 in 10.0 mi Calm Calm - N/A   Scattered Clouds
3:53 AM 75.9 °F - 68.0 °F 76% 30.14 in 10.0 mi NNW 3.5 mph - N/A   Scattered Clouds
4:53 AM 73.9 °F - 69.1 °F 85% 30.14 in 10.0 mi Calm Calm - N/A   Scattered Clouds
5:53 AM 73.9 °F - 69.1 °F 85% 30.14 in 10.0 mi Calm Calm - N/A   Scattered Clouds
6:53 AM 73.9 °F - 69.1 °F 85% 30.16 in 10.0 mi Calm Calm - N/A   Mostly Cloudy
7:53 AM 78.1 °F - 72.0 °F 81% 30.17 in 10.0 mi North 3.5 mph - N/A   Mostly Cloudy
8:53 AM 81.0 °F 84.9 °F 71.1 °F 72% 30.17 in 10.0 mi Calm Calm - N/A   Mostly Cloudy
9:53 AM 82.9 °F 87.5 °F 71.1 °F 67% 30.16 in 10.0 mi Calm Calm - N/A   Mostly Cloudy
10:53 AM 86.0 °F 91.5 °F 71.1 °F 61% 30.16 in 10.0 mi Calm Calm - N/A   Mostly Cloudy
11:53 AM 86.0 °F 90.7 °F 70.0 °F 59% 30.15 in 10.0 mi Calm Calm - N/A   Mostly Cloudy
12:53 PM 89.1 °F 93.7 °F 69.1 °F 52% 30.14 in 10.0 mi Variable 3.5 mph - N/A   Mostly Cloudy
1:53 PM 89.1 °F 92.9 °F 68.0 °F 50% 30.11 in 10.0 mi Variable 3.5 mph - N/A   Mostly Cloudy
2:53 PM 91.0 °F 95.2 °F 68.0 °F 47% 30.07 in 10.0 mi Calm Calm - N/A   Mostly Cloudy
3:53 PM 90.0 °F 92.4 °F 66.0 °F 45% 30.04 in 10.0 mi SSE 4.6 mph - N/A   Mostly Cloudy
4:53 PM 91.0 °F 93.8 °F 66.0 °F 44% 30.01 in 10.0 mi SSE 8.1 mph - N/A   Mostly Cloudy
5:53 PM 91.9 °F 94.5 °F 66.0 °F 42% 29.99 in 10.0 mi East 6.9 mph - N/A   Mostly Cloudy
6:53 PM 91.0 °F 95.2 °F 68.0 °F 47% 29.98 in 10.0 mi SSW 10.4 mph - N/A   Mostly Cloudy
7:53 PM 88.0 °F 91.4 °F 68.0 °F 51% 29.99 in 10.0 mi SSW 8.1 mph - N/A   Scattered Clouds
8:53 PM 84.0 °F 87.0 °F 68.0 °F 58% 30.00 in 10.0 mi SSW 6.9 mph - N/A   Scattered Clouds
9:53 PM 82.9 °F 85.8 °F 68.0 °F 60% 30.01 in 10.0 mi North 8.1 mph - N/A   Scattered Clouds
10:53 PM 82.0 °F 85.9 °F 70.0 °F 67% 30.03 in 10.0 mi North 3.5 mph - N/A   Scattered Clouds
11:53 PM 80.1 °F 83.2 °F 70.0 °F 71% 30.02 in 10.0 mi NNE 3.5 mph - N/A   Scattered Clouds